EW6604 Weather Reports


Display with metric or nautical units.
time (UTC)temp
F
wind
direction
speed
MPH
gust
MPH
rain 1hr
in
rain 24hr
in
rain mn
in
humidity
%
barometer
mb
20260504150734 73 54 6.0 9.0 0.00 0.00 0.00 59 1018.3
20260504150214 73 62 7.0 13.0 0.00 0.00 0.00 62 1018.3
20260504141228 72 42 6.0 8.0 0.00 0.00 0.00 62 1018.1
20260504140715 72 43 6.0 11.0 0.00 0.00 0.00 61 1018.1
20260504140214 72 66 6.0 11.0 0.00 0.00 0.00 61 1018.0
20260504130738 70 60 7.0 11.0 0.00 0.00 0.00 76 1018.0
20260504130221 70 44 8.0 12.0 0.00 0.00 0.00 77 1018.0
20260504120217 67 44 8.0 12.0 0.00 0.00 0.00 84 1017.5
20260504110230 65 44 9.0 11.0 0.00 0.00 0.00 84 1016.9
20260504100215 66 37 9.0 12.0 0.00 0.00 0.00 83 1016.6
20260504081730 65 31 4.0 6.0 0.00 0.00 0.00 82 1017.0
20260504081217 65 44 3.0 6.0 0.00 0.00 0.00 82 1016.9
20260504080727 65 30 2.0 3.0 0.00 0.00 0.00 84 1016.9
20260504080228 65 64 0.0 4.0 0.00 0.00 0.00 83 1016.8
20260504070215 66 27 8.0 9.0 0.00 0.00 0.00 81 1016.9
20260504060230 66 35 5.0 7.0 0.00 0.00 0.00 81 1017.6
20260504050713 67 43 1.0 2.0 0.00 0.00 0.00 79 1018.0
20260504050237 67 52 1.0 2.0 0.00 0.00 0.00 79 1018.1
20260504045719 67 36 1.0 3.0 0.00 0.00 0.00 80 1018.0
20260504045223 67 36 2.0 3.0 0.00 0.00 0.00 79 1018.0
20260504044725 67 26 2.0 4.0 0.00 0.00 0.00 79 1018.0
20260504044226 68 25 2.0 4.0 0.00 0.00 0.00 79 1018.0
20260504043730 68 28 3.0 4.0 0.00 0.00 0.00 79 1018.1
20260504043214 68 42 3.0 4.0 0.00 0.00 0.00 78 1018.1
20260504042739 68 39 0.0 2.0 0.00 0.00 0.00 78 1018.1
20260504042219 68 53 2.0 3.0 0.00 0.00 0.00 78 1018.1
20260504041212 68 49 2.0 5.0 0.00 0.00 0.00 78 1018.0
20260504040719 68 44 3.0 6.0 0.00 0.00 0.00 78 1018.0
20260504040213 68 49 4.0 6.0 0.00 0.00 0.00 78 1018.0
20260504035715 68 56 3.0 6.0 0.00 0.00 0.00 78 1018.0
20260504035220 68 58 5.0 7.0 0.00 0.00 0.00 78 1017.9
20260504034744 68 63 5.0 7.0 0.00 0.00 0.00 78 1018.0
20260504034226 68 54 4.0 6.0 0.00 0.00 0.00 78 1018.0
20260504033730 68 49 5.0 6.0 0.00 0.00 0.00 79 1018.0
20260504033213 68 67 4.0 6.0 0.00 0.00 0.00 79 1018.1
20260504032716 68 51 5.0 7.0 0.00 0.00 0.00 79 1018.2
20260504032219 68 48 5.0 7.0 0.00 0.00 0.00 80 1018.0
20260504031721 68 45 6.0 7.0 0.00 0.00 0.00 79 1018.1
20260504031224 68 50 6.0 7.0 0.00 0.00 0.00 79 1018.0
20260504030725 68 40 5.0 7.0 0.00 0.00 0.00 78 1018.1
20260504030227 68 68 5.0 7.0 0.00 0.00 0.00 79 1018.1
20260504025730 68 46 6.0 7.0 0.00 0.00 0.00 78 1018.1
20260504025216 68 53 5.0 8.0 0.00 0.00 0.00 78 1018.2
20260504024720 68 44 7.0 8.0 0.00 0.00 0.00 77 1018.1
20260504024224 68 45 6.0 9.0 0.00 0.00 0.00 77 1018.1
20260504023729 68 46 7.0 9.0 0.00 0.00 0.00 78 1018.0
20260504023229 68 54 8.0 11.0 0.00 0.00 0.00 77 1017.9
20260504022729 68 55 8.0 11.0 0.00 0.00 0.00 77 1017.9
20260504022214 68 54 8.0 12.0 0.00 0.00 0.00 77 1017.8
20260504021718 69 52 9.0 12.0 0.00 0.00 0.00 78 1017.8
20260504021221 68 73 8.0 11.0 0.00 0.00 0.00 78 1017.7
20260504020748 68 52 9.0 11.0 0.00 0.00 0.00 77 1017.6
20260504020229 68 54 8.0 11.0 0.00 0.00 0.00 77 1017.7
20260504015732 68 44 8.0 11.0 0.00 0.00 0.00 77 1017.7
20260504015213 68 53 8.0 11.0 0.00 0.00 0.00 77 1017.5
20260504014717 68 62 8.0 10.0 0.00 0.00 0.00 77 1017.6
20260504014223 68 60 8.0 11.0 0.00 0.00 0.00 77 1017.6
20260504013727 69 47 8.0 11.0 0.00 0.00 0.00 77 1017.5
20260504013251 69 52 9.0 11.0 0.00 0.00 0.00 76 1017.5
20260504012714 69 57 7.0 10.0 0.00 0.00 0.00 76 1017.5
20260504012218 69 65 7.0 11.0 0.00 0.00 0.00 75 1017.5
20260504011719 69 66 7.0 11.0 0.00 0.00 0.00 75 1017.3
20260504011224 69 56 8.0 10.0 0.00 0.00 0.00 74 1017.3
20260504010728 69 53 7.0 10.0 0.00 0.00 0.00 74 1017.4
20260504010230 69 58 7.0 10.0 0.00 0.00 0.00 73 1017.3
20260504005713 69 53 8.0 10.0 0.00 0.02 0.00 74 1017.2
20260504005218 69 56 8.0 11.0 0.00 0.02 0.00 72 1017.2
20260504004719 69 49 8.0 11.0 0.00 0.02 0.00 73 1017.2
20260504004226 69 46 9.0 11.0 0.00 0.02 0.00 72 1017.2
20260504003710 69 53 8.0 11.0 0.00 0.02 0.00 71 1017.1
20260504003214 70 57 8.0 11.0 0.00 0.02 0.00 71 1017.2
20260504002716 70 47 8.0 11.0 0.00 0.02 0.00 69 1017.2
20260504002220 70 47 8.0 12.0 0.00 0.02 0.00 70 1017.2
20260504001723 70 45 7.0 12.0 0.00 0.02 0.00 71 1017.3
20260504001245 70 46 7.0 10.0 0.00 0.02 0.00 69 1017.3
20260504000735 70 47 8.0 11.0 0.00 0.02 0.00 68 1017.2
20260504000219 71 46 9.0 11.0 0.00 0.02 0.00 68 1017.1
20260503235721 71 52 9.0 11.0 0.00 0.02 0.00 69 1017.1
20260503235226 71 52 9.0 12.0 0.00 0.02 0.00 67 1017.1
20260503234728 71 50 10.0 13.0 0.00 0.02 0.00 70 1017.0
20260503234250 71 61 9.0 13.0 0.00 0.02 0.00 69 1016.9
20260503233714 71 47 10.0 14.0 0.00 0.02 0.00 66 1016.8
20260503233221 71 59 12.0 14.0 0.00 0.02 0.00 64 1016.8
20260503232725 71 61 11.0 14.0 0.00 0.02 0.00 66 1016.8
20260503232229 71 70 12.0 14.0 0.00 0.02 0.00 65 1016.8
20260503231713 71 51 10.0 14.0 0.00 0.02 0.00 65 1016.8
20260503231215 71 66 10.0 14.0 0.00 0.02 0.00 66 1016.7
20260503230730 72 65 10.0 12.0 0.00 0.02 0.00 66 1016.8
20260503230222 72 55 9.0 12.0 0.00 0.02 0.00 65 1016.8
20260503225743 72 45 9.0 13.0 0.00 0.02 0.00 67 1016.8
20260503225223 72 48 7.0 15.0 0.00 0.02 0.00 64 1016.8
20260503224746 72 63 11.0 15.0 0.00 0.02 0.00 65 1016.8
20260503224229 72 81 8.0 13.0 0.00 0.02 0.00 64 1016.9
20260503223712 72 80 9.0 13.0 0.00 0.02 0.00 63 1016.9
20260503223231 72 47 8.0 13.0 0.00 0.02 0.00 63 1016.8
20260503222714 72 53 9.0 13.0 0.00 0.02 0.00 62 1016.8
20260503222220 72 78 9.0 12.0 0.00 0.02 0.00 64 1016.7
20260503221722 72 77 9.0 12.0 0.00 0.02 0.00 62 1016.6
20260503221225 72 45 9.0 17.0 0.00 0.02 0.00 60 1016.7
20260503220727 72 59 9.0 17.0 0.00 0.02 0.00 67 1016.7
20260503220228 72 37 7.0 11.0 0.00 0.02 0.00 63 1016.7
20260503215729 72 50 8.0 11.0 0.00 0.02 0.00 63 1016.6
20260503215230 72 68 7.0 12.0 0.00 0.02 0.00 61 1016.6
20260503214712 72 53 9.0 12.0 0.00 0.02 0.00 60 1016.7
20260503214226 72 61 8.0 11.0 0.00 0.02 0.00 61 1016.6
20260503213719 72 48 10.0 11.0 0.00 0.02 0.00 63 1016.6
20260503213219 72 45 7.0 12.0 0.00 0.02 0.00 61 1016.5
20260503212726 72 54 8.0 13.0 0.00 0.02 0.00 60 1016.6
20260503212222 72 49 6.0 13.0 0.00 0.02 0.00 60 1016.5
20260503211722 72 38 8.0 13.0 0.00 0.02 0.00 60 1016.5
20260503211214 72 46 10.0 13.0 0.00 0.02 0.00 61 1016.7
20260503210715 72 47 7.0 13.0 0.00 0.02 0.00 60 1016.6
20260503210224 72 68 10.0 13.0 0.00 0.02 0.00 60 1016.7
20260503205725 72 64 9.0 14.0 0.00 0.02 0.00 59 1016.6
20260503205220 72 68 10.0 14.0 0.00 0.02 0.00 59 1016.6
20260503204722 72 47 10.0 15.0 0.00 0.02 0.00 62 1016.6
20260503204226 72 64 12.0 14.0 0.00 0.02 0.00 60 1016.7
20260503203725 72 49 10.0 13.0 0.00 0.02 0.00 60 1016.9
20260503203213 72 49 9.0 13.0 0.00 0.02 0.00 63 1016.9
20260503202734 72 53 7.0 14.0 0.00 0.02 0.00 62 1017.0
20260503202217 72 60 10.0 18.0 0.00 0.02 0.00 63 1016.9
20260503201720 72 75 13.0 18.0 0.00 0.02 0.00 67 1016.9
20260503201222 72 59 9.0 18.0 0.00 0.02 0.00 62 1016.7
20260503200726 72 86 10.0 14.0 0.00 0.02 0.00 63 1016.8
20260503200251 72 66 9.0 13.0 0.00 0.02 0.00 60 1016.9
20260503195712 72 79 9.0 12.0 0.00 0.06 0.00 60 1017.0
20260503195236 72 49 6.0 13.0 0.00 0.06 0.00 59 1017.1
20260503194719 72 61 8.0 13.0 0.00 0.06 0.00 59 1017.2
20260503194222 72 56 5.0 12.0 0.00 0.06 0.00 64 1017.2
20260503193726 72 73 8.0 15.0 0.00 0.06 0.00 63 1017.2
20260503193230 72 81 9.0 15.0 0.00 0.06 0.00 62 1017.3
20260503192751 72 72 6.0 12.0 0.00 0.06 0.00 58 1017.4
20260503192215 72 46 9.0 15.0 0.00 0.06 0.00 62 1017.6
20260503191717 72 75 11.0 15.0 0.00 0.06 0.00 63 1017.7
20260503191240 72 82 8.0 14.0 0.00 0.06 0.00 65 1017.7
20260503190723 72 66 11.0 16.0 0.00 0.06 0.00 65 1017.7
20260503190225 72 58 10.0 13.0 0.00 0.06 0.00 65 1017.9
20260503185728 72 73 8.0 13.0 0.00 0.14 0.00 63 1017.9
20260503185212 72 78 6.0 11.0 0.00 0.14 0.00 62 1017.9
20260503184716 71 55 7.0 13.0 0.00 0.14 0.00 62 1017.9
20260503184218 71 61 9.0 13.0 0.00 0.14 0.00 64 1018.1
20260503183740 71 73 8.0 14.0 0.00 0.14 0.00 64 1018.1
20260503183222 71 73 9.0 14.0 0.00 0.14 0.00 64 1018.1
20260503182747 71 85 6.0 16.0 0.00 0.14 0.00 65 1018.2
20260503182229 71 56 10.0 16.0 0.00 0.14 0.00 64 1018.2
20260503181713 71 81 8.0 11.0 0.00 0.14 0.00 68 1018.3
20260503180715 71 61 9.0 13.0 0.00 0.14 0.00 66 1018.4
20260503180215 71 80 5.0 11.0 0.00 0.14 0.00 66 1018.5
20260503175748 71 54 5.0 12.0 0.00 0.25 0.00 66 1018.5
20260503175221 71 68 7.0 14.0 0.00 0.25 0.00 67 1018.5
20260503174720 71 49 11.0 14.0 0.00 0.25 0.00 70 1018.6
20260503174230 70 54 9.0 14.0 0.00 0.25 0.00 68 1018.5
20260503173726 70 54 11.0 14.0 0.00 0.25 0.00 68 1018.6
20260503172723 70 40 13.0 17.0 0.00 0.25 0.00 69 1018.6
20260503172217 70 70 9.0 12.0 0.00 0.25 0.00 69 1018.5
20260503171721 70 45 9.0 14.0 0.00 0.25 0.00 69 1018.5
20260503171222 70 56 9.0 15.0 0.00 0.25 0.00 69 1018.6
20260503170723 70 63 12.0 15.0 0.00 0.25 0.00 71 1018.6
20260503170213 70 49 9.0 14.0 0.00 0.25 0.00 73 1018.7